GW4858 Weather Reports


time (UTC)temp
F
wind
direction
speed
knots
gust
knots
rain 1hr
in
rain 24hr
in
rain mn
in
humidity
%
barometer
mb
20260906113719 68 332 0.0 0.9 0.00 0.00 0.00 91 1017.7
20260906113218 67 330 0.9 0.9 0.00 0.00 0.00 91 1017.6
20260906112713 67 331 0.0 0.9 0.00 0.00 0.00 91 1017.5
20260906112210 67 328 0.0 0.0 0.00 0.00 0.00 92 1017.4
20260906111709 67 328 0.0 0.0 0.00 0.00 0.00 92 1017.1
20260906111203 67 333 0.0 0.0 0.00 0.00 0.00 92 1017.0
20260906110658 67 334 0.0 0.0 0.00 0.00 0.00 92 1017.1
20260906110154 67 357 1.7 1.7 0.00 0.00 0.00 92 1017.0
20260906105647 66 335 0.0 0.9 0.00 0.00 0.00 92 1016.9
20260906105144 66 335 0.0 0.0 0.00 0.00 0.00 92 1016.7
20260906104643 66 338 0.0 0.0 0.00 0.00 0.00 92 1016.8
20260906104142 66 333 0.0 0.0 0.00 0.00 0.00 92 1016.7
20260906103640 66 332 0.0 0.0 0.00 0.00 0.00 92 1016.7
20260906103136 66 340 0.0 0.0 0.00 0.00 0.00 92 1016.6
20260906102631 66 320 0.0 0.0 0.00 0.00 0.00 92 1016.5
20260906102131 66 320 0.0 0.0 0.00 0.00 0.00 92 1016.5
20260906101631 66 319 0.0 0.0 0.00 0.00 0.00 92 1016.6
20260906101131 66 319 0.0 0.0 0.00 0.00 0.00 92 1016.5
20260906100627 66 321 0.0 0.0 0.00 0.00 0.00 92 1016.6
20260906100122 66 330 0.0 0.0 0.00 0.00 0.00 92 1016.5
20260906095621 66 330 0.0 0.0 0.00 0.00 0.00 92 1016.4
20260906095117 66 331 0.0 0.0 0.00 0.00 0.00 92 1016.2
20260906094616 66 335 0.0 0.0 0.00 0.00 0.00 92 1016.2
20260906094112 66 340 0.0 0.9 0.00 0.00 0.00 92 1016.0
20260906093608 66 330 0.0 0.0 0.00 0.00 0.00 92 1016.1
20260906093103 66 326 0.0 0.0 0.00 0.00 0.00 92 1016.1
20260906092558 66 341 0.0 0.0 0.00 0.00 0.00 92 1016.1
20260906092053 66 336 0.0 0.0 0.00 0.00 0.00 92 1015.9
20260906091548 66 335 0.0 0.0 0.00 0.00 0.00 92 1015.9
20260906091045 66 330 0.0 0.0 0.00 0.00 0.00 92 1015.8
20260906090539 66 333 0.0 0.0 0.00 0.00 0.00 92 1015.6
20260906090034 67 355 0.0 0.9 0.00 0.00 0.00 92 1015.9
20260906085533 67 337 0.0 0.0 0.00 0.00 0.00 92 1015.6
20260906085032 67 339 0.0 0.0 0.00 0.00 0.00 92 1015.5
20260906084527 67 11 0.0 0.9 0.00 0.00 0.00 92 1015.6
20260906084025 67 337 0.9 0.9 0.00 0.00 0.00 92 1015.6
20260906083522 67 328 0.0 0.9 0.00 0.00 0.00 92 1015.5
20260906083021 67 336 0.0 0.9 0.00 0.00 0.00 92 1015.5
20260906082516 67 323 0.0 0.9 0.00 0.00 0.00 92 1015.6
20260906082012 67 336 0.0 0.9 0.00 0.00 0.00 92 1015.4
20260906081508 68 358 0.9 0.9 0.00 0.00 0.00 92 1015.5
20260906081003 67 341 0.0 0.9 0.00 0.00 0.00 92 1015.4
20260906080500 67 50 1.7 1.7 0.00 0.00 0.00 92 1015.4
20260906075955 67 6 0.9 1.7 0.00 0.00 0.00 92 1015.4
20260906075450 67 330 0.0 0.9 0.00 0.00 0.00 92 1015.2
20260906074945 67 330 0.0 0.0 0.00 0.00 0.00 92 1014.9
20260906074444 67 331 0.0 0.9 0.00 0.00 0.00 92 1015.1
20260906073943 67 326 0.0 0.0 0.00 0.00 0.00 92 1015.1
20260906073438 66 322 0.0 0.0 0.00 0.00 0.00 92 1015.0
20260906072934 66 322 0.0 0.0 0.00 0.00 0.00 92 1014.9
20260906072429 66 323 0.0 0.0 0.00 0.00 0.00 92 1015.0
20260906071925 66 323 0.0 0.0 0.00 0.00 0.00 92 1015.0
20260906071421 66 325 0.0 0.0 0.00 0.00 0.00 91 1015.0
20260906070917 66 315 0.0 0.0 0.00 0.00 0.00 91 1015.0
20260906070413 65 317 0.0 0.0 0.00 0.00 0.00 91 1015.2
20260906065908 65 321 0.0 0.0 0.00 0.00 0.00 91 1015.1
20260906065402 65 322 0.0 0.0 0.00 0.00 0.00 91 1015.1
20260906064858 65 319 0.0 0.0 0.00 0.00 0.00 91 1015.0
20260906064355 64 319 0.0 0.0 0.00 0.00 0.00 91 1015.1
20260906063854 64 319 0.0 0.0 0.00 0.00 0.00 91 1015.1
20260906063349 64 316 0.0 0.0 0.00 0.00 0.00 91 1015.0
20260906062844 64 316 0.0 0.0 0.00 0.00 0.00 90 1015.2
20260906062343 64 320 0.0 0.0 0.00 0.00 0.00 90 1015.2
20260906061839 64 319 0.0 0.0 0.00 0.00 0.00 90 1015.2
20260906061336 64 309 0.0 0.0 0.00 0.00 0.00 90 1015.2
20260906060830 64 318 0.0 0.0 0.00 0.00 0.00 90 1015.4
20260906060328 64 321 0.0 0.0 0.00 0.00 0.00 90 1015.3
20260906055823 64 319 0.0 0.0 0.00 0.00 0.00 90 1015.3
20260906055319 64 320 0.0 0.0 0.00 0.00 0.00 90 1015.4
20260906054814 64 320 0.0 0.0 0.00 0.00 0.00 90 1015.5
20260906054309 64 321 0.0 0.0 0.00 0.00 0.00 89 1015.5
20260906053806 64 322 0.0 0.0 0.00 0.00 0.00 89 1015.7
20260906053301 64 322 0.0 0.0 0.00 0.00 0.00 89 1015.4
20260906052756 64 321 0.0 0.0 0.00 0.00 0.00 89 1015.7
20260906052252 64 321 0.0 0.0 0.00 0.00 0.00 89 1015.7
20260906051749 65 320 0.0 0.0 0.00 0.00 0.00 89 1015.6
20260906051248 65 314 0.0 0.0 0.00 0.00 0.00 89 1015.7
20260906050744 65 323 0.0 0.0 0.00 0.00 0.00 89 1015.6
20260906050239 65 323 0.0 0.0 0.00 0.00 0.00 88 1015.8
20260906045738 65 322 0.0 0.0 0.00 0.00 0.00 88 1015.8
20260906045227 65 319 0.0 0.0 0.00 0.00 0.00 88 1015.8
20260906044722 65 322 0.0 0.0 0.00 0.00 0.00 88 1015.8
20260906044217 66 319 0.0 0.0 0.00 0.00 0.00 88 1015.6
20260906043708 66 320 0.0 0.0 0.00 0.00 0.00 88 1015.9
20260906043203 66 319 0.0 0.0 0.00 0.00 0.00 88 1015.8
20260906042703 66 320 0.0 0.0 0.00 0.00 0.00 88 1015.6
20260906042156 66 316 0.0 0.0 0.00 0.00 0.00 88 1015.6
20260906041652 66 318 0.0 0.0 0.00 0.00 0.00 88 1015.8
20260906041147 66 323 0.0 0.0 0.00 0.00 0.00 88 1015.8
20260906040642 66 323 0.0 0.0 0.00 0.00 0.00 88 1015.6
20260906040138 66 323 0.0 0.0 0.00 0.00 0.00 87 1015.6
20260906035633 66 322 0.0 0.0 0.00 0.00 0.00 87 1015.8
20260906035129 66 322 0.0 0.0 0.00 0.00 0.00 87 1015.8
20260906034629 66 322 0.0 0.0 0.00 0.00 0.00 87 1015.7
20260906034124 66 320 0.0 0.0 0.00 0.00 0.00 87 1015.7
20260906033620 66 322 0.0 0.0 0.00 0.00 0.00 87 1015.6
20260906033114 66 321 0.0 0.0 0.00 0.00 0.00 87 1015.6
20260906032611 66 321 0.0 0.0 0.00 0.00 0.00 86 1015.6
20260906032111 66 320 0.0 0.0 0.00 0.00 0.00 86 1015.6
20260906031606 66 319 0.0 0.0 0.00 0.00 0.00 86 1015.6
20260906031102 66 322 0.0 0.0 0.00 0.00 0.00 86 1015.6
20260906030601 67 322 0.0 0.0 0.00 0.00 0.00 86 1015.5
20260906030055 67 322 0.0 0.0 0.00 0.00 0.00 85 1015.4
20260906025549 67 316 0.0 0.0 0.00 0.00 0.00 85 1015.4
20260906025048 67 316 0.0 0.0 0.00 0.00 0.00 85 1015.5
20260906024543 67 320 0.0 0.0 0.00 0.00 0.00 85 1015.5
20260906024043 67 318 0.0 0.0 0.00 0.00 0.00 85 1015.6
20260906023539 67 322 0.0 0.0 0.00 0.00 0.00 84 1015.5
20260906023034 67 321 0.0 0.0 0.00 0.00 0.00 84 1015.6
20260906022529 68 316 0.0 0.0 0.00 0.00 0.00 84 1015.4
20260906022024 67 321 0.0 0.0 0.00 0.00 0.00 84 1015.3
20260906021521 67 322 0.0 0.0 0.00 0.00 0.00 83 1015.2
20260906021020 68 323 0.0 0.0 0.00 0.00 0.00 83 1015.4
20260906020519 68 322 0.0 0.0 0.00 0.00 0.00 83 1015.3
20260906020019 68 322 0.0 0.0 0.00 0.00 0.00 82 1015.3
20260906015518 68 321 0.0 0.0 0.00 0.00 0.00 82 1015.2
20260906015013 68 321 0.0 0.0 0.00 0.00 0.00 82 1015.1
20260906014513 68 322 0.0 0.0 0.00 0.00 0.00 81 1015.3
20260906014009 68 322 0.0 0.0 0.00 0.00 0.00 81 1015.1
20260906013503 69 322 0.0 0.0 0.00 0.00 0.00 81 1015.1
20260906012959 69 323 0.0 0.0 0.00 0.00 0.00 80 1015.2
20260906012454 69 322 0.0 0.0 0.00 0.00 0.00 80 1015.0
20260906011953 69 322 0.0 0.0 0.00 0.00 0.00 80 1015.0
20260906011449 69 321 0.0 0.0 0.00 0.00 0.00 79 1014.9
20260906010944 69 322 0.0 0.0 0.00 0.00 0.00 79 1014.9
20260906010440 69 322 0.0 0.0 0.00 0.00 0.00 78 1015.1
20260906005936 69 322 0.0 0.0 0.00 0.00 0.00 78 1014.9
20260906005436 69 322 0.0 0.0 0.00 0.00 0.00 77 1014.7
20260906004934 70 322 0.0 0.0 0.00 0.00 0.00 76 1014.7
20260906004428 70 322 0.0 0.0 0.00 0.00 0.00 76 1014.6
20260906003924 70 322 0.0 0.0 0.00 0.00 0.00 75 1014.7
20260906003419 71 322 0.0 0.0 0.00 0.00 0.00 74 1014.7
20260906002914 71 322 0.0 0.0 0.00 0.00 0.00 74 1014.6
20260906002414 71 322 0.0 0.0 0.00 0.00 0.00 73 1014.5
20260906001915 71 322 0.0 0.0 0.00 0.00 0.00 73 1014.4
20260906001410 72 322 0.0 0.0 0.00 0.00 0.00 72 1014.5
20260906000910 72 322 0.0 0.0 0.00 0.00 0.00 72 1014.4
20260906000406 72 321 0.0 0.0 0.00 0.00 0.00 71 1014.2
20260905235900 73 321 0.0 0.0 0.00 0.00 0.00 71 1014.2
20260905235354 73 322 0.0 0.0 0.00 0.00 0.00 70 1014.1
20260905234845 73 321 0.0 0.0 0.00 0.00 0.00 70 1014.2
20260905234340 74 318 0.0 0.0 0.00 0.00 0.00 69 1014.0
20260905233835 74 319 0.0 0.0 0.00 0.00 0.00 68 1014.1
20260905233330 74 318 0.0 0.0 0.00 0.00 0.00 67 1014.2
20260905232829 75 323 0.0 0.0 0.00 0.00 0.00 66 1014.1
20260905232326 75 322 0.0 0.0 0.00 0.00 0.00 65 1013.9
20260905231821 75 322 0.0 0.0 0.00 0.00 0.00 64 1014.0
20260905231316 76 323 0.0 0.0 0.00 0.00 0.00 63 1014.0
20260905230812 76 320 0.0 0.0 0.00 0.00 0.00 63 1014.1
20260905230310 76 333 0.0 0.0 0.00 0.00 0.00 62 1014.0
20260905225809 77 335 0.0 0.0 0.00 0.00 0.00 62 1013.9
20260905225306 77 332 0.0 0.0 0.00 0.00 0.00 62 1013.9
20260905224804 77 320 0.0 0.0 0.00 0.00 0.00 61 1014.1
20260905224300 77 314 0.0 0.0 0.00 0.00 0.00 61 1014.1
20260905223755 77 347 0.0 0.0 0.00 0.00 0.00 61 1014.0
20260905223252 77 323 0.0 0.0 0.00 0.00 0.00 60 1014.0
20260905222748 77 326 0.0 0.0 0.00 0.00 0.00 60 1014.0
20260905222246 77 329 0.0 0.9 0.00 0.00 0.00 59 1013.9
20260905221742 78 331 0.0 0.0 0.00 0.00 0.00 59 1013.7
20260905221239 78 345 0.0 0.9 0.00 0.00 0.00 59 1013.7
20260905220735 78 334 0.0 0.0 0.00 0.00 0.00 59 1013.9
20260905220231 78 356 0.0 0.9 0.00 0.00 0.00 58 1013.9
20260905215730 78 333 0.0 0.9 0.00 0.00 0.00 57 1013.8
20260905215226 78 340 0.0 0.9 0.00 0.00 0.00 57 1013.7
20260905214721 78 331 0.0 0.0 0.00 0.00 0.00 57 1013.7
20260905214217 78 357 0.9 1.7 0.00 0.00 0.00 57 1013.5
20260905213712 78 331 0.0 2.6 0.00 0.00 0.00 57 1013.6
20260905213208 78 1 0.0 0.9 0.00 0.00 0.00 57 1013.6
20260905212703 79 332 0.0 0.9 0.00 0.00 0.00 58 1013.6
20260905212202 79 2 0.0 0.9 0.00 0.00 0.00 58 1013.6
20260905211657 79 339 0.9 1.7 0.00 0.00 0.00 57 1013.8
20260905211152 79 330 0.0 0.9 0.00 0.00 0.00 57 1013.5
20260905210649 80 322 0.0 0.9 0.00 0.00 0.00 56 1013.4
20260905210149 80 339 0.0 0.9 0.00 0.00 0.00 55 1013.5
20260905205648 80 337 0.9 1.7 0.00 0.00 0.00 55 1013.4
20260905205147 80 2 0.9 5.2 0.00 0.00 0.00 55 1013.2
20260905204646 80 282 0.0 0.9 0.00 0.00 0.00 54 1013.5
20260905204142 80 357 0.0 0.9 0.00 0.00 0.00 53 1013.5
20260905203637 80 323 0.0 1.7 0.00 0.00 0.00 54 1013.3
20260905203132 80 327 0.0 2.6 0.00 0.00 0.00 55 1013.6
20260905202628 80 3 1.7 2.6 0.00 0.00 0.00 54 1013.6
20260905202123 80 93 0.9 1.7 0.00 0.00 0.00 54 1013.5
20260905201619 81 293 0.0 1.7 0.00 0.00 0.00 53 1013.5
20260905201118 80 346 0.0 0.9 0.00 0.00 0.00 53 1013.5
20260905200614 80 15 0.0 2.6 0.00 0.00 0.00 53 1013.4
20260905200109 81 321 0.9 2.6 0.00 0.00 0.00 52 1013.5
20260905195607 81 325 0.9 1.7 0.00 0.00 0.00 52 1013.6
20260905195103 80 341 0.0 0.9 0.00 0.00 0.00 53 1013.4
20260905194602 81 323 0.0 2.6 0.00 0.00 0.00 52 1013.6
20260905194101 81 322 0.0 1.7 0.00 0.00 0.00 51 1013.6
20260905193556 81 272 1.7 1.7 0.00 0.00 0.00 52 1013.6
20260905193052 82 312 0.9 3.5 0.00 0.00 0.00 53 1013.8
20260905192547 81 318 0.9 2.6 0.00 0.00 0.00 54 1013.8
20260905192043 81 340 1.7 1.7 0.00 0.00 0.00 55 1013.6
20260905191542 81 325 0.0 1.7 0.00 0.00 0.00 56 1013.8
20260905191041 80 25 0.0 0.9 0.00 0.00 0.00 57 1013.9
20260905190539 79 292 0.0 0.9 0.00 0.00 0.00 58 1013.9
20260905190033 78 333 0.9 1.7 0.00 0.00 0.00 57 1013.7
20260905185533 79 323 0.0 1.7 0.00 0.00 0.00 56 1013.8
20260905185033 81 30 0.9 1.7 0.00 0.00 0.00 56 1013.9
20260905184532 82 319 0.0 0.9 0.00 0.00 0.00 58 1013.9
20260905184032 80 268 0.9 1.7 0.00 0.00 0.00 58 1014.2
20260905183531 79 295 0.9 1.7 0.00 0.00 0.00 58 1013.9
20260905183027 79 308 0.0 1.7 0.00 0.00 0.00 60 1013.9
20260905182521 79 344 0.9 0.9 0.00 0.00 0.00 59 1014.0
20260905182020 79 17 0.0 1.7 0.00 0.00 0.00 58 1013.8
20260905181515 80 327 0.9 1.7 0.00 0.00 0.00 57 1014.0
20260905181014 81 325 0.9 2.6 0.00 0.00 0.00 55 1014.0
20260905180504 83 320 0.0 0.9 0.00 0.00 0.00 53 1013.9
20260905180000 82 324 0.9 2.6 0.00 0.00 0.00 55 1014.2
20260905175458 81 339 0.0 2.6 0.00 0.00 0.00 57 1014.0
20260905174954 81 343 0.9 2.6 0.00 0.00 0.00 58 1014.0
20260905174449 80 352 0.9 1.7 0.00 0.00 0.00 59 1014.0
20260905173945 79 187 0.0 0.9 0.00 0.00 0.00 60 1014.0
20260905173442 79 15 1.7 2.6 0.00 0.00 0.00 59 1013.9
20260905172937 79 340 0.9 2.6 0.00 0.00 0.00 58 1014.0
20260905172435 79 118 2.6 3.5 0.00 0.00 0.00 57 1014.0
20260905171931 79 194 1.7 2.6 0.00 0.00 0.00 57 1014.1
20260905171427 80 59 1.7 2.6 0.00 0.00 0.00 55 1014.1
20260905170923 81 356 0.0 0.9 0.00 0.00 0.00 57 1014.2
20260905170419 80 25 0.9 2.6 0.00 0.00 0.00 57 1014.3
20260905165918 79 353 0.9 1.7 0.00 0.00 0.00 57 1014.2
20260905165413 80 321 1.7 2.6 0.00 0.00 0.00 58 1014.3
20260905164908 80 321 0.0 1.7 0.00 0.00 0.00 58 1014.1
20260905164403 80 334 0.0 1.7 0.00 0.00 0.00 57 1014.3
20260905163858 80 304 1.7 1.7 0.00 0.00 0.00 56 1014.3
20260905163355 80 351 2.6 3.5 0.00 0.00 0.00 56 1014.3
20260905162850 78 11 0.0 1.7 0.00 0.00 0.00 56 1014.1
20260905162349 79 333 0.0 0.9 0.00 0.00 0.00 56 1014.3
20260905161844 80 283 0.9 3.5 0.00 0.00 0.00 56 1014.2
20260905161343 81 6 1.7 1.7 0.00 0.00 0.00 55 1014.3
20260905160842 82 337 0.9 2.6 0.00 0.00 0.00 56 1014.3
20260905160336 81 317 0.0 0.9 0.00 0.00 0.00 57 1014.4
20260905155831 80 335 1.7 2.6 0.00 0.00 0.00 59 1014.5
20260905155325 79 351 1.7 2.6 0.00 0.00 0.00 60 1014.4
20260905154824 79 317 0.0 0.9 0.00 0.00 0.00 58 1014.3
20260905154320 79 327 0.0 3.5 0.00 0.00 0.00 57 1014.3
20260905153815 81 325 0.9 0.9 0.00 0.00 0.00 56 1014.2
20260905153312 80 315 0.0 1.7 0.00 0.00 0.00 58 1014.2
20260905152811 78 17 1.7 2.6 0.00 0.00 0.00 59 1014.1
20260905152310 79 1 1.7 2.6 0.00 0.00 0.00 59 1014.1
20260905151806 80 338 1.7 1.7 0.00 0.00 0.00 59 1014.1
20260905151301 80 290 0.9 3.5 0.00 0.00 0.00 59 1014.2
20260905150756 80 306 0.9 2.6 0.00 0.00 0.00 59 1014.2
20260905150255 80 297 0.0 2.6 0.00 0.00 0.00 59 1014.2
20260905145753 79 269 0.0 2.6 0.00 0.00 0.00 59 1014.3
20260905145247 78 306 0.0 2.6 0.00 0.00 0.00 59 1014.3
20260905144746 79 335 0.9 2.6 0.00 0.00 0.00 60 1014.2
20260905144242 80 3 1.7 2.6 0.00 0.00 0.00 60 1014.1
20260905143736 80 297 1.7 1.7 0.00 0.00 0.00 60 1014.1
20260905143235 80 286 0.0 1.7 0.00 0.00 0.00 60 1014.0
20260905142733 79 337 0.9 2.6 0.00 0.00 0.00 61 1014.0
20260905142228 79 6 3.5 3.5 0.00 0.00 0.00 62 1014.1
20260905141725 79 343 0.0 2.6 0.00 0.00 0.00 63 1014.1
20260905141220 79 298 0.0 1.7 0.00 0.00 0.00 61 1014.1
20260905140715 78 357 1.7 2.6 0.00 0.00 0.00 62 1014.1
20260905140214 78 358 1.7 2.6 0.00 0.00 0.00 63 1013.9
20260905135709 79 265 0.9 1.7 0.00 0.00 0.00 62 1013.9
20260905135205 78 38 0.0 1.7 0.00 0.00 0.00 63 1013.9
20260905134704 77 39 1.7 2.6 0.00 0.00 0.00 64 1014.0
20260905134204 78 334 1.7 2.6 0.00 0.00 0.00 64 1013.9
20260905133659 78 344 0.9 2.6 0.00 0.00 0.00 65 1014.1
20260905133154 77 352 1.7 2.6 0.00 0.00 0.00 65 1014.1
20260905132653 77 0 1.7 3.5 0.00 0.00 0.00 65 1014.1
20260905132148 77 338 0.0 1.7 0.00 0.00 0.00 65 1014.2
20260905131644 77 11 1.7 2.6 0.00 0.00 0.00 66 1014.1
20260905131143 77 350 0.9 1.7 0.00 0.00 0.00 66 1014.2
20260905130638 77 357 0.0 0.9 0.00 0.00 0.00 67 1014.1
20260905130138 76 346 0.9 0.9 0.00 0.00 0.00 68 1014.3
20260905125633 75 351 0.0 1.7 0.00 0.00 0.00 69 1014.2
20260905125129 76 350 0.0 3.5 0.00 0.00 0.00 71 1014.3
20260905124625 75 350 1.7 1.7 0.00 0.00 0.00 73 1014.3
20260905124120 75 350 0.0 0.9 0.00 0.00 0.00 74 1014.4
20260905123609 74 350 1.7 1.7 0.00 0.00 0.00 76 1014.5
20260905123106 74 350 0.0 1.7 0.00 0.00 0.00 77 1014.6
20260905122601 74 350 0.9 0.9 0.00 0.00 0.00 78 1014.6
20260905122100 73 349 0.9 1.7 0.00 0.00 0.00 79 1014.6
20260905121555 73 350 1.7 1.7 0.00 0.00 0.00 80 1014.6
20260905121050 72 349 0.0 1.7 0.00 0.00 0.00 81 1014.6
20260905120549 71 309 0.0 0.0 0.00 0.00 0.00 81 1014.6
20260905120045 71 326 0.0 0.9 0.00 0.00 0.00 82 1014.4
20260905115543 71 322 0.0 0.9 0.00 0.00 0.00 82 1014.5
20260905115039 71 322 0.0 0.0 0.00 0.00 0.00 82 1014.5
20260905114538 71 322 0.0 0.9 0.00 0.00 0.00 83 1014.6
20260905114037 71 316 0.0 0.0 0.00 0.00 0.00 83 1014.3